Location: Laas
(43.4693°N, 0.3073°E)
Time: 15:47:35
(UTC+00:00)

H-2A R/B - Pass Details

Date: 25 October 2020
Orbit: 528 x 652 km, 98.3° (Epoch: 24 November)

Event Time Altitude Azimuth Distance (km) Brightness Sun altitude
Rises 17:23:49 0° 184° (S) 2,895 6.2 -5.1°
Reaches altitude 10° 17:26:05 10° 191° (S) 2,009 5.5 -5.5°
Maximum altitude 17:30:13 40° 262° (W) 946 4.3 -6.3°
Drops below altitude 10° 17:34:29 10° 332° (NNW) 2,064 5.5 -7.0°
Sets 17:36:50 0° 340° (NNW) 2,984 6.2 -7.5°
